Погода в деревне Волот

Россия / Новгородская область     57°56′10″N   30°41′09″E
темп.,
°C
ветер,
м/с
пор.,
м/с
влажн.,
%
обл.,
%
осадки,
мм/ч
давл.,
гПа
погр.,
м
6 мая, чт
чт600:00+5юв399899 0.0 1001229
03:00+6ююв3799100 0.9 998186
06:00+6ссв1199100 3.1 99637
09:00+7ссв2499100 3.3 992221
12:00+5зсз4996100 8.6 993723
15:00+9зюз6985100 9.6 995986
18:00+8юз71286100 1.1 9961051
21:00+5юз61390100 1.3 9981145
7 мая, пт
пт700:00+5юз61288100 0.1 1000949
03:00+5юз6138690 0.1 10011061
06:00+5юз6128295 0.0 10011039
09:00+6юз61076100 0.1 10031030
12:00+8юз696884 0.1 10041347
15:00+9юз5969100 0.4 10051288
18:00+10ююз486660 0.2 10051383
21:00+5ююв3684100 0.3 1005111
8 мая, сб
сб800:00+6юв3884100 0.1 1004216
03:00+5св3897100 4.1 1002437
06:00+5всв3799100 4.8 999320
09:00+5с3499100 6.8 999297
12:00+5ссз4797100 1.1 999617
15:00+4сз61097100 1.9 1000867
18:00+4сз71397100 1.4 10011041
21:00+5сз61289100 2.1 10031028
9 мая, вс
вс900:00+3зсз7158584 0.0 10051000
03:00+2зсз615868 0.0 1009568
06:00+2з514833 0.0 1012562
09:00+6зсз611580 0.0 1014922
12:00+10зсз59405 0.0 10161741
15:00+12зюз5741100 0.0 10182242
18:00+11юз4851100 0.0 10191454
21:00+6ю397445 0.0 1020184
10 мая, пн
пн1000:00+5ююз4117976 0.0 1021231
03:00+6ююз4137794 0.0 1021357
06:00+7ю51580100 0.1 1021672
09:00+10ююз5127051 0.1 1022554
12:00+16юз695494 0.0 1022993
15:00+19ююз695156 0.0 10221275
18:00+18ююз51059100 0.0 10221229
21:00+14ю4137494 0.0 1023418